Weather History for Jaffrey, NH

Change the Weather History Date:

Saturday, November 17, 2012

  Actual Average Record
Temperature  
Mean Temperature 34 °F -  
Max Temperature 45 °F 42 °F 64 °F (2006)
Min Temperature 23 °F 26 °F 16 °F (1997)
Degree Days  
Heating Degree Days 31    
Moisture  
Dew Point 23 °F    
Average Humidity 74    
Maximum Humidity 88    
Minimum Humidity 43    
Precipitation  
Precipitation 0.00 in - - ()
Sea Level Pressure  
Sea Level Pressure 30.62 in    
Wind  
Wind Speed 1 mph (WNW)    
Max Wind Speed 5 mph    
Max Gust Speed -    
Visibility 10 miles    
Events      
Averages and records for this station are not official NWS values.
T = Trace of Precipitation, MM = Missing Value Source: NWS Daily Summary

Daily Weather History Graph

Daily Weather History Graph

Search for Another Location

Airport:

Trip Planner

Search our weather history database for the weather conditions in past years. The results will help you decide how hot, cold, wet, or windy it might be!

Date:

Astronomy

Nov. 17, 2012 Rise Set
Actual Time 6:42 AM EST 4:22 PM EST
Civil Twilight 6:12 AM EST 4:53 PM EST
Nautical Twilight 5:37 AM EST 5:27 PM EST
Astronomical Twilight 5:04 AM EST 6:01 PM EST
Moon 10:25 AM EST (11/17) 8:29 PM EST (11/17)
Length of Visible Light 10h 41m
Length of Day
9h 39m
Waxing Crescent, 20% of the Moon is Illuminated
Nov 17
Waxing Crescent
Nov 20
First Quarter
Nov 28
Full
Dec 6
Last Quarter
Dec 13
New

Hourly Weather History & Observations

Time (EST) Temp. Windchill Dew Point Humidity Pressure Visibility Wind Dir Wind Speed Gust Speed Precip Events Conditions
12:52 AM 27.0 °F - 21.9 °F 81% 30.48 in 10.0 mi Calm Calm - N/A   Clear
1:52 AM 26.1 °F - 21.0 °F 81% 30.50 in 10.0 mi Calm Calm - N/A   Clear
2:52 AM 25.0 °F - 21.0 °F 85% 30.51 in 10.0 mi Calm Calm - N/A   Clear
3:52 AM 24.1 °F - 19.9 °F 84% 30.53 in 10.0 mi Calm Calm - N/A   Clear
4:52 AM 24.1 °F - 19.9 °F 84% 30.56 in 10.0 mi Calm Calm - N/A   Clear
5:52 AM 23.0 °F - 19.9 °F 88% 30.58 in 10.0 mi Calm Calm - N/A   Clear
6:52 AM 23.0 °F - 19.9 °F 88% 30.61 in 10.0 mi Calm Calm - N/A   Clear
7:52 AM 26.1 °F - 23.0 °F 88% 30.63 in 7.0 mi Calm Calm - N/A   Clear
8:52 AM 34.0 °F - 28.9 °F 82% 30.64 in 9.0 mi Calm Calm - N/A   Clear
9:52 AM 37.9 °F 35.5 °F 26.1 °F 62% 30.64 in 10.0 mi Variable 3.5 mph - N/A   Clear
10:52 AM 39.9 °F - 25.0 °F 55% 30.63 in 10.0 mi Calm Calm - N/A   Clear
11:52 AM 42.1 °F 39.2 °F 24.1 °F 49% 30.62 in 10.0 mi NW 4.6 mph - N/A   Clear
12:52 PM 43.0 °F 41.3 °F 25.0 °F 49% 30.62 in 10.0 mi Variable 3.5 mph - N/A   Clear
1:52 PM 44.1 °F 42.5 °F 24.1 °F 45% 30.61 in 10.0 mi WSW 3.5 mph - N/A   Clear
2:52 PM 45.0 °F 43.5 °F 24.1 °F 44% 30.61 in 10.0 mi West 3.5 mph - N/A   Clear
3:52 PM 43.0 °F - 21.9 °F 43% 30.63 in 10.0 mi Calm Calm - N/A   Clear
4:52 PM 34.0 °F - 26.1 °F 73% 30.64 in 10.0 mi Calm Calm - N/A   Clear
5:52 PM 30.0 °F - 25.0 °F 82% 30.66 in 10.0 mi Calm Calm - N/A   Clear
6:52 PM 28.0 °F - 23.0 °F 81% 30.67 in 10.0 mi Calm Calm - N/A   Clear
7:52 PM 27.0 °F - 23.0 °F 85% 30.68 in 10.0 mi Calm Calm - N/A   Clear
8:52 PM 26.1 °F - 21.9 °F 84% 30.69 in 10.0 mi Calm Calm - N/A   Clear
9:52 PM 25.0 °F - 21.9 °F 88% 30.68 in 10.0 mi Calm Calm - N/A   Clear
10:52 PM 24.1 °F - 21.0 °F 88% 30.69 in 10.0 mi Calm Calm - N/A   Clear
11:52 PM 23.0 °F - 19.9 °F 88% 30.69 in 10.0 mi Calm Calm - N/A   Clear